User: anonymous   Login
Location: Peebles
(55.6412°N, 3.1714°W)
Time: 07:30:47
(UTC+00:00)
Language:

NOSS 3-2 (A) - Orbit

View from above orbital plane
View from above orbital plane
View from above satellite
View from above satellite

Ground track
Ground track

The orbit data is extracted from the following two-line orbital elements,

1 28095U 03054A   21325.24718505 0.00000040  00000-0  39988-4 0    09
2 28095  63.4231 135.7238 0444685   0.0730 359.9270 13.41412410    01
Epoch (UTC): 21 November 2021 05:55:56
Eccentricity: 0.0444685
inclination: 63.4231°
perigee height: 771 km
apogee height: 1437 km
right ascension of ascending node: 135.7238°
argument of perigee: 0.0730°
revolutions per day: 13.41412410
mean anomaly at epoch: 359.9270°
orbit number at epoch: 0

The dashed part of the orbit path shows where the satellite is in the earth's shadow,  

DLR